LAKE NATOMA (NIMBUS DAM) (NAT)

Elevation: 132' · AMERICAN R basin · Operator: US Bureau of Reclamation

Provisional data, subject to change.
Query executed Tuesday at 4:42:40   clock

Select a sensor type for a plot of data.
Note: Reservoir Flows are daily averages.

Earlier

Date RES ELE    STORAGE    RES CHG    OUTFLOW    INFLOW    SPILL    DIS PWR   
 FEET   AF   AF   CFS   CFS   CFS   CFS  
09/22/2014 123.53 8040 66 1400 1435 0 1370
09/23/2014 124.35 8436 396 1401 1601 0 1371
09/24/2014 123.07 7824 -612 1402 1095 0 1372
09/25/2014 122.69 7652 -172 1402 1316 0 1372
09/26/2014 122.52 7575 -77 1401 1364 0 1371
09/27/2014 122.70 7656 81 1401 1445 0 1371
09/28/2014 122.27 7463 -193 1404 1308 0 1371
09/29/2014 121.67 7202 -261 1397 1267 0 1371
09/30/2014 120.98 6913 -289 1372 1228 0 1372
10/01/2014 122.17 7418 505 1377 1635 0 1371
10/02/2014 121.80 7257 -161 1209 1130 0 1193
10/03/2014 121.88 7291 34 1087 1106 0 1067
10/04/2014 121.72 7223 -68 1072 1041 0 1052
10/05/2014 121.78 7249 26 1065 1080 0 1045
10/06/2014 122.32 7485 236 1063 1184 0 1035
10/07/2014 123.46 8007 522 1064 1329 0 1034
10/08/2014 123.61 8078 71 1062 1100 0 1032
10/09/2014 123.92 8223 145 1063 1137 0 1033
10/10/2014 123.96 8242 19 1067 1078 0 1037
10/11/2014 124.04 8281 39 1067 1089 0 1036
10/12/2014 123.84 8186 -95 1085 1039 0 1035
10/13/2014 124.03 8276 90 1084 1131 0 1034
10/14/2014 124.11 8316 40 1080 1102 0 1036
10/15/2014 123.52 8035 -281 1057 915 0 1033
10/16/2014 122.93 7760 -275 1034 895 0 1034
10/17/2014 121.60 7173 -587 1037 742 0 1033
10/18/2014 121.66 7198 25 1054 1069 0 1035
10/19/2014 121.45 7110 -88 1063 1021 0 1033
10/20/2014 123.38 7970 860 1069 1504 0 1032
10/21/2014 -- -- -- -- -- -- --

Later | Latest

Warning! This data is preliminary and subject to revision.

Show NAT Map | Plot NAT Data | 1 Month NAT Data | Real-Time NAT Data | NAT Info